When you browse on this site, cookies collect data to enhance your experience and personalize the content and advertising you see.
Visit our Privacy Policy to learn more. By continuing to use the site, you agree to this use of cookies and data.
  • Em Portugal
  • Lista de países
  • Para 7 dias
  • Temperatura da água
  • Mapas de satélite
  • Mapa do tempo
  • Widgets de tempo
  • user-avatar
    Iniciar Sessão

    Previsão horária em Albani

    Hoje, 19 Dezembro, Quarta-feira

    Tempo Temperatura Precipitação Vento Pressão Humidade
    00:00 +14°C° 0 mm 2 m/s 761 mmHg 80%
    01:00 +13°C° 0 mm 2 m/s 761 mmHg 82%
    02:00 +13°C° 0 mm 1 m/s 761 mmHg 84%
    03:00 +13°C° 0 mm 1 m/s 761 mmHg 85%
    04:00 +13°C° 0 mm 1 m/s 762 mmHg 86%
    05:00 +13°C° 0 mm 1 m/s 762 mmHg 86%
    06:00 +15°C° 0 mm 1 m/s 762 mmHg 78%
    07:00 +16°C° 0 mm 1 m/s 762 mmHg 70%
    08:00 +19°C° 0 mm 2 m/s 763 mmHg 62%
    09:00 +20°C° 0 mm 2 m/s 762 mmHg 58%
    10:00 +21°C° 0 mm 2 m/s 762 mmHg 54%
    11:00 +22°C° 0 mm 3 m/s 762 mmHg 51%
    12:00 +22°C° 0 mm 3 m/s 762 mmHg 50%
    13:00 +24°C° 0 mm 3 m/s 762 mmHg 50%
    14:00 +24°C° 0 mm 3 m/s 762 mmHg 50%
    15:00 +22°C° 0 mm 4 m/s 762 mmHg 52%
    16:00 +21°C° 0 mm 4 m/s 762 mmHg 55%
    17:00 +21°C° 0 mm 4 m/s 762 mmHg 58%
    18:00 +19°C° 0 mm 4 m/s 762 mmHg 64%
    19:00 +18°C° 0 mm 3 m/s 762 mmHg 69%
    20:00 +17°C° 0 mm 3 m/s 762 mmHg 75%
    21:00 +16°C° 0 mm 3 m/s 763 mmHg 77%
    22:00 +16°C° 0 mm 3 m/s 763 mmHg 80%
    23:00 +14°C° 0 mm 3 m/s 763 mmHg 82%

    Amanhã, 20 Dezembro, Quinta-feira

    Tempo Temperatura Precipitação Vento Pressão Humidade
    00:00 +15°C° 0 mm 2 m/s 763 mmHg 84%
    01:00 +15°C° 0 mm 2 m/s 763 mmHg 85%
    02:00 +14°C° 0 mm 2 m/s 762 mmHg 86%
    03:00 +14°C° 0 mm 2 m/s 763 mmHg 87%
    04:00 +14°C° 0 mm 2 m/s 763 mmHg 88%
    05:00 +14°C° 0 mm 2 m/s 763 mmHg 88%
    06:00 +16°C° 0 mm 2 m/s 763 mmHg 81%
    07:00 +17°C° 0 mm 2 m/s 763 mmHg 73%
    08:00 +19°C° 0 mm 3 m/s 764 mmHg 65%
    09:00 +20°C° 0 mm 3 m/s 764 mmHg 63%
    10:00 +20°C° 0 mm 3 m/s 763 mmHg 60%
    11:00 +21°C° 0 mm 4 m/s 763 mmHg 58%
    12:00 +22°C° 0 mm 4 m/s 763 mmHg 56%
    13:00 +22°C° 0 mm 4 m/s 763 mmHg 55%
    14:00 +23°C° 0 mm 4 m/s 763 mmHg 53%
    15:00 +22°C° 0 mm 5 m/s 762 mmHg 57%
    16:00 +21°C° 0 mm 5 m/s 762 mmHg 60%
    17:00 +20°C° 0 mm 5 m/s 762 mmHg 64%
    18:00 +19°C° 0 mm 5 m/s 763 mmHg 70%
    19:00 +18°C° 0 mm 4 m/s 763 mmHg 75%
    20:00 +15°C° 0 mm 4 m/s 763 mmHg 81%
    21:00 +15°C° 0 mm 4 m/s 763 mmHg 83%
    22:00 +15°C° 0 mm 4 m/s 764 mmHg 86%
    23:00 +14°C° 0 mm 4 m/s 764 mmHg 88%

    Depois de amanhã, 21 Dezembro, Sexta-feira

    Tempo Temperatura Precipitação Vento Pressão Humidade
    00:00 +14°C° 0 mm 4 m/s 763 mmHg 88%
    01:00 +14°C° 0 mm 4 m/s 763 mmHg 89%
    02:00 +14°C° 0 mm 4 m/s 762 mmHg 90%
    03:00 +14°C° 0 mm 4 m/s 762 mmHg 90%
    04:00 +14°C° 0 mm 4 m/s 762 mmHg 90%
    05:00 +13°C° 0 mm 4 m/s 762 mmHg 90%
    06:00 +15°C° 0 mm 4 m/s 762 mmHg 82%
    07:00 +18°C° 0 mm 4 m/s 763 mmHg 73%
    08:00 +19°C° 0 mm 5 m/s 763 mmHg 65%
    09:00 +21°C° 0 mm 4 m/s 763 mmHg 57%
    10:00 +23°C° 0 mm 4 m/s 762 mmHg 48%
    11:00 +26°C° 0 mm 4 m/s 762 mmHg 40%
    12:00 +27°C° 0 mm 5 m/s 762 mmHg 38%
    13:00 +28°C° 0 mm 5 m/s 761 mmHg 37%
    14:00 +29°C° 0 mm 5 m/s 761 mmHg 35%
    15:00 +28°C° 0 mm 6 m/s 760 mmHg 40%
    16:00 +27°C° 0 mm 6 m/s 760 mmHg 45%
    17:00 +26°C° 0 mm 6 m/s 759 mmHg 49%
    18:00 +23°C° 0 mm 6 m/s 760 mmHg 55%
    19:00 +21°C° 0 mm 6 m/s 760 mmHg 61%
    20:00 +19°C° 0 mm 6 m/s 760 mmHg 67%
    21:00 +19°C° 0 mm 6 m/s 760 mmHg 68%
    22:00 +19°C° 0 mm 6 m/s 760 mmHg 68%
    23:00 +17°C° 0 mm 6 m/s 760 mmHg 68%

    22 Dezembro, Sábado

    Tempo Temperatura Precipitação Vento Pressão Humidade
    00:00 +17°C° 0 mm 6 m/s 760 mmHg 69%
    01:00 +17°C° 0 mm 6 m/s 759 mmHg 71%
    02:00 +17°C° 0 mm 6 m/s 759 mmHg 72%
    03:00 +17°C° 0 mm 5 m/s 758 mmHg 70%
    04:00 +17°C° 0 mm 5 m/s 758 mmHg 67%
    05:00 +17°C° 0 mm 5 m/s 757 mmHg 65%
    06:00 +21°C° 0 mm 4 m/s 757 mmHg 55%
    07:00 +25°C° 0 mm 4 m/s 757 mmHg 45%
    08:00 +29°C° 0 mm 4 m/s 758 mmHg 35%
    09:00 +32°C° 0 mm 4 m/s 757 mmHg 30%
    10:00 +35°C° 0 mm 4 m/s 757 mmHg 25%
    11:00 +37°C° 0 mm 4 m/s 756 mmHg 21%
    12:00 +37°C° 0 mm 5 m/s 756 mmHg 22%
    13:00 +37°C° 0 mm 5 m/s 755 mmHg 23%
    14:00 +37°C° 0 mm 5 m/s 755 mmHg 24%
    15:00 +34°C° 0 mm 5 m/s 755 mmHg 30%
    16:00 +32°C° 0 mm 4 m/s 755 mmHg 37%
    17:00 +28°C° 0 mm 4 m/s 755 mmHg 43%
    18:00 +26°C° 0.1 mm 4 m/s 755 mmHg 50%
    19:00 +25°C° 0.1 mm 3 m/s 756 mmHg 57%
    20:00 +22°C° 0.1 mm 3 m/s 756 mmHg 64%
    21:00 +21°C° 0.1 mm 3 m/s 756 mmHg 67%
    22:00 +21°C° 0.1 mm 3 m/s 756 mmHg 70%
    23:00 +20°C° 0.1 mm 2 m/s 756 mmHg 73%

    23 Dezembro, Domingo

    Tempo Temperatura Precipitação Vento Pressão Humidade
    00:00 +20°C° 0 mm 3 m/s 756 mmHg 74%
    01:00 +20°C° 0 mm 3 m/s 755 mmHg 76%
    02:00 +20°C° 0 mm 3 m/s 755 mmHg 77%
    03:00 +20°C° 0 mm 2 m/s 755 mmHg 78%
    04:00 +20°C° 0 mm 2 m/s 755 mmHg 79%
    05:00 +21°C° 0 mm 1 m/s 755 mmHg 80%
    06:00 +21°C° 0 mm 1 m/s 756 mmHg 76%
    07:00 +21°C° 0 mm 2 m/s 756 mmHg 73%
    08:00 +23°C° 0 mm 2 m/s 756 mmHg 69%
    09:00 +25°C° 0 mm 3 m/s 756 mmHg 62%
    10:00 +26°C° 0 mm 3 m/s 756 mmHg 54%
    11:00 +28°C° 0 mm 4 m/s 756 mmHg 47%
    12:00 +28°C° 0 mm 4 m/s 755 mmHg 45%
    13:00 +28°C° 0 mm 4 m/s 755 mmHg 43%
    14:00 +28°C° 0 mm 5 m/s 755 mmHg 41%
    15:00 +27°C° 0 mm 5 m/s 755 mmHg 45%
    16:00 +25°C° 0 mm 5 m/s 755 mmHg 49%
    17:00 +23°C° 0 mm 5 m/s 755 mmHg 53%
    18:00 +21°C° 0 mm 4 m/s 756 mmHg 61%
    19:00 +20°C° 0 mm 3 m/s 756 mmHg 68%
    20:00 +18°C° 0 mm 2 m/s 757 mmHg 76%
    21:00 +18°C° 0 mm 2 m/s 757 mmHg 79%
    22:00 +18°C° 0 mm 2 m/s 757 mmHg 83%
    23:00 +17°C° 0 mm 2 m/s 757 mmHg 86%

    24 Dezembro, Segunda-feira

    Tempo Temperatura Precipitação Vento Pressão Humidade
    00:00 +17°C° 0 mm 2 m/s 757 mmHg 87%
    01:00 +17°C° 0 mm 2 m/s 757 mmHg 89%
    02:00 +17°C° 0 mm 3 m/s 757 mmHg 90%
    03:00 +17°C° 0 mm 2 m/s 757 mmHg 89%
    04:00 +17°C° 0 mm 2 m/s 757 mmHg 88%
    05:00 +18°C° 0 mm 1 m/s 757 mmHg 87%
    06:00 +18°C° 0 mm 2 m/s 758 mmHg 81%
    07:00 +20°C° 0 mm 2 m/s 758 mmHg 74%
    08:00 +21°C° 0 mm 3 m/s 759 mmHg 68%
    09:00 +22°C° 0 mm 3 m/s 759 mmHg 65%
    10:00 +23°C° 0 mm 4 m/s 759 mmHg 62%
    11:00 +23°C° 0 mm 4 m/s 759 mmHg 59%
    12:00 +23°C° 0 mm 5 m/s 759 mmHg 61%
    13:00 +23°C° 0 mm 5 m/s 758 mmHg 63%
    14:00 +23°C° 0 mm 5 m/s 758 mmHg 65%
    15:00 +22°C° 0 mm 5 m/s 758 mmHg 68%
    16:00 +21°C° 0 mm 6 m/s 758 mmHg 71%
    17:00 +20°C° 0 mm 6 m/s 758 mmHg 74%
    18:00 +20°C° 0 mm 6 m/s 759 mmHg 77%
    19:00 +19°C° 0 mm 6 m/s 759 mmHg 79%
    20:00 +17°C° 0 mm 6 m/s 759 mmHg 82%
    21:00 +17°C° 0 mm 6 m/s 759 mmHg 82%
    22:00 +17°C° 0 mm 6 m/s 759 mmHg 81%
    23:00 +17°C° 0 mm 6 m/s 759 mmHg 81%
    Mostrar mais